Location: Unspecified
(0.0000°N, 0.0000°E)
Time: 18:32:40
(UTC+00:00)

Vanguard 3 - Pass Details

Date: 28 September 2023
Orbit: 507 x 3241 km, 33.3° (Epoch: 29 November)

Event Time Altitude Azimuth Distance (km) Brightness Sun altitude
Rises 04:05:57 0° 280° (W) 2,842 - -26.2°
Reaches altitude 10° 04:08:06 10° 269° (W) 2,109 - -25.7°
Exits shadow 04:12:19 31° 207° (SSW) 1,499 8.2 -24.6°
Maximum altitude 04:12:22 31° 206° (SSW) 1,503 8.3 -24.6°
Drops below altitude 10° 04:18:52 10° 147° (SSE) 3,277 10.7 -23.0°
Sets 04:23:06 0° 137° (SE) 4,754 11.7 -21.9°
